93P/Lovas 1 (2007)

Japanese version
Home page
Total 5,708 html files since Dec. 4, 1995
Updated on April 26, 2008

---------------------------------------------------------------------

* Profile

* Pictures

* Orbital Elements

The following orbital elements are taken from MPC 51824:

Epoch 2007 Dec. 6.0 TT = JDT 2454440.5
T 2007 Dec. 17.3477 TT                                  MPC
q   1.704735             (2000.0)            P               Q
n   0.1071162      Peri.   74.6674      +0.5719015      -0.8170993
a   4.391026       Node   339.9243      +0.6477767      +0.5041679
e   0.611768       Incl.   12.2181      +0.5033032      +0.2795772
P   9.20
From 349 observations 1980-2000, mean residual 0".6.  Nongravitational
     parameters A1 = +0.18, A2 = -0.0048.

* Finding Charts

* Magnitudes Graph

        m1 =  6.5 + 5 log d + 30.0 log r  [ ,0]  (             - 2007 Dec. 17)
        m1 = 10.0 + 5 log d + 15.0 log r  [0, ]  (2007 Dec. 17 -             )

---------------------------------------------------------------------

The orbital elements are published at the MPC Ephemerides and Orbital Elements.
The charts are made with StellaNavigator Ver.2.0 for Windows (AstroArts / ASCII).
The magnitudes graphs are made with Comet for Windows.

---------------------------------------------------------------------

Copyright(C) 1995-2007 Seiichi Yoshida (comet@aerith.net). All rights reserved.